Theta_e
325 329 316 314 304 302 299 303 308 308 309 313 317 314 314 315 313 308 331 337 339 340 342 344 346 348 347 347 347 346 345 344 343 342 340 338 337 337 336 336 336 335 335 334 333 333 334 333 334
320 318 314 307 300 295 299 302 307 309 313 316 315 316 315 313 324 326 331 337 340 340 343 343 344 348 347 347 348 347 346 343 341 341 339 337 336 336 337 336 335 335 334 334 332 331 332 332 333
322 315 311 301 295 295 297 303 308 310 315 312 314 317 317 315 325 328 334 338 340 338 341 341 343 348 347 346 347 348 347 345 341 340 339 338 336 336 335 335 335 335 334 334 333 331 330 331 331
316 315 308 301 299 299 302 305 308 311 312 313 315 313 319 325 327 332 338 338 336 337 339 340 344 348 348 347 346 346 346 345 343 340 339 337 336 335 335 335 334 334 333 334 333 332 331 330 330
313 311 304 301 300 299 299 306 309 308 309 312 313 311 316 325 332 336 337 337 335 336 338 341 342 346 347 347 346 346 345 344 343 342 340 339 338 337 335 334 333 333 332 333 333 333 332 332 331
308 307 300 299 300 299 305 308 308 308 309 311 313 313 317 327 331 334 337 335 337 335 337 339 336 339 342 345 346 346 344 343 343 342 341 340 337 336 336 334 333 332 332 332 332 331 330 330 331
306 303 299 300 299 300 306 308 307 307 308 310 315 310 316 325 332 334 335 336 336 336 336 338 340 338 335 339 341 342 343 343 342 342 341 339 338 337 337 336 335 333 332 331 333 332 331 330 330
306 305 301 302 296 299 302 307 307 308 308 314 318 308 311 323 332 333 334 333 334 335 336 336 337 337 339 340 333 335 338 339 339 338 335 333 333 333 334 332 334 334 334 333 332 332 333 332 331
309 301 301 301 300 301 302 302 305 308 309 309 313 313 318 327 330 330 330 332 332 332 334 335 335 336 336 336 334 331 332 333 334 334 330 329 334 333 331 328 329 333 334 334 333 333 333 332 329
304 299 301 306 304 303 303 303 304 305 305 307 312 318 323 326 327 326 326 326 329 331 332 333 334 334 334 334 335 333 335 337 337 337 336 335 333 332 330 325 325 329 329 332 333 333 332 328 330
303 300 303 305 306 306 303 303 305 303 303 306 308 312 320 322 324 325 326 328 328 330 332 332 332 332 332 333 333 332 332 332 332 332 334 333 332 331 330 330 329 330 323 329 329 329 329 329 328
299 302 303 304 302 304 303 306 304 302 305 309 309 316 320 321 322 324 326 328 328 329 331 331 332 331 331 332 331 331 330 330 330 330 330 331 331 330 329 327 327 326 326 326 326 326 326 326 325
297 298 301 301 301 301 304 303 304 305 308 308 312 318 319 321 323 326 327 329 330 329 330 331 331 331 331 330 330 329 328 329 329 328 328 328 329 328 328 327 325 325 325 324 325 324 324 324 323
298 298 297 299 299 300 301 301 303 303 307 307 313 315 319 320 321 323 325 326 327 330 330 331 330 331 331 330 330 329 329 328 328 328 328 327 327 326 326 326 325 325 325 325 324 324 324 324 323
298 295 296 296 298 298 300 297 299 304 304 304 308 312 316 320 322 322 323 325 327 329 330 329 330 331 330 330 330 329 328 327 326 326 326 327 326 325 325 325 324 325 325 324 324 323 323 322 322
294 292 290 295 297 297 298 292 298 298 299 301 301 302 303 309 319 323 325 325 326 328 328 330 331 330 330 330 330 329 328 327 326 326 326 325 326 326 325 324 323 324 324 323 323 323 322 321 322
290 286 288 293 295 296 295 291 296 299 298 298 299 300 300 301 302 307 320 326 327 327 328 329 331 331 330 331 330 329 329 327 327 326 326 326 325 325 325 325 325 324 323 322 322 322 321 322 321
286 287 288 290 292 292 293 293 296 297 298 298 299 299 300 300 302 303 304 313 323 327 328 329 330 331 331 331 330 329 329 328 329 327 326 326 325 325 325 325 325 324 323 323 322 322 322 321 322
291 290 288 290 292 291 290 291 294 296 297 296 297 298 299 300 300 301 302 303 307 319 325 327 328 329 330 329 327 327 327 328 328 328 328 327 326 326 325 325 325 324 323 324 323 322 320 320 319
291 289 288 291 293 291 289 290 293 294 295 296 297 297 296 295 296 297 298 299 300 303 316 323 326 328 329 330 330 329 329 330 331 331 330 329 328 328 326 326 325 324 323 323 322 321 321 319 319
289 288 287 288 291 289 286 285 287 292 293 294 294 293 293 292 293 296 297 298 299 300 301 312 321 325 327 329 329 327 326 324 324 327 329 329 329 329 328 328 327 327 325 324 325 323 320 318 320
286 291 291 290 287 281 286 279 286 289 291 290 292 292 292 293 295 296 297 298 298 299 301 303 307 317 323 327 327 326 325 324 327 327 327 328 328 328 328 327 327 327 327 325 325 325 323 321 317
286 292 291 290 286 284 282 280 283 287 287 289 292 293 294 294 294 294 296 298 299 300 300 300 302 306 313 323 326 325 324 326 327 326 325 325 326 326 326 327 327 326 326 325 325 323 322 322 320
292 290 289 287 284 276 281 280 279 283 286 289 292 293 293 294 294 296 296 298 298 301 302 303 303 303 304 307 317 323 323 323 323 324 323 324 325 326 325 326 326 326 326 325 325 324 323 322 322
289 285 277 277 275 274 280 280 281 286 287 290 291 292 293 293 293 295 295 295 297 299 300 302 303 303 305 306 305 305 307 310 315 318 320 321 322 324 325 325 325 325 326 326 325 324 323 322 321
288 285 280 272 273 275 281 278 280 285 289 291 291 292 293 293 293 294 295 295 295 297 298 299 299 300 301 303 304 307 308 308 308 308 309 310 312 315 320 323 325 325 325 325 324 324 323 323 322
288 284 287 279 270 274 278 280 286 287 287 287 288 289 290 292 293 293 294 294 295 295 296 296 297 298 298 299 300 302 305 306 306 308 309 309 311 312 314 316 317 320 323 324 323 322 321 322 322
290 291 283 281 271 268 276 278 278 284 284 286 286 287 288 290 292 292 293 293 294 295 295 295 296 295 296 297 299 300 300 301 302 303 302 304 305 308 309 312 314 316 318 320 322 321 322 320 321
287 286 285 285 281 274 271 276 283 285 286 285 286 287 287 289 290 290 291 293 294 293 293 293 293 293 293 295 296 296 295 296 297 297 298 298 300 301 303 305 307 309 312 315 317 318 320 320 320
288 286 285 279 278 282 279 279 287 287 288 286 286 286 287 289 289 289 290 292 292 291 290 290 291 290 290 291 292 292 291 292 292 292 293 294 295 297 298 299 300 302 304 307 309 312 315 316 316
Wind_Speed
2 4 1 4 4 4 2 2 1 2 2 0 5 4 5 2 4 2 1 7 13 16 13 14 12 15 15 13 15 15 14 12 12 12 11 11 10 10 10 10 10 9 10 9 9 9 10 9 9
3 3 4 3 5 2 3 3 4 3 3 5 5 2 2 1 1 4 8 6 15 15 11 12 11 17 16 14 14 14 13 13 12 11 10 10 9 9 9 9 8 8 8 8 8 8 8 8 8
2 3 3 4 3 3 3 3 2 2 4 2 3 2 1 1 1 9 1 14 16 15 10 10 10 16 15 14 13 14 13 13 12 10 10 10 9 9 8 7 6 6 7 7 7 7 7 6 6
2 4 4 4 2 3 3 2 3 5 1 2 3 3 0 2 3 6 12 16 13 11 10 10 11 13 14 13 12 12 12 12 11 10 9 9 8 8 7 6 5 5 4 6 5 5 5 5 5
4 3 3 2 3 2 3 1 5 3 2 1 0 2 0 2 2 9 15 12 14 11 9 10 10 10 11 13 12 11 11 10 9 9 8 7 7 6 6 6 5 4 3 3 3 3 2 2 2
4 3 3 1 3 2 2 4 5 2 2 2 2 4 1 1 6 9 12 13 14 12 9 8 8 7 9 10 12 12 11 11 10 9 7 7 7 7 6 5 4 4 4 3 2 1 0 2 2
5 4 3 2 3 3 2 4 5 4 3 2 4 3 1 3 6 8 9 10 12 11 10 8 8 8 6 5 7 10 11 11 10 8 8 7 6 5 6 4 4 4 1 3 4 3 2 3 4
4 4 4 1 2 1 1 4 1 3 4 2 1 1 1 3 11 8 8 10 9 9 9 9 8 8 8 8 7 6 6 7 8 7 7 7 7 6 6 5 5 6 6 5 4 4 6 6 6
3 4 2 3 5 2 2 2 1 0 4 1 2 1 1 8 13 10 8 6 6 7 9 9 9 8 7 6 6 6 6 6 6 6 7 7 4 5 6 5 6 7 6 6 7 7 7 6 6
4 3 6 3 4 1 4 3 5 3 1 2 1 2 4 11 11 11 12 11 9 10 10 9 9 9 8 7 7 6 5 5 5 5 6 5 6 6 6 6 6 7 7 7 8 8 6 6 4
3 6 4 2 2 2 4 3 3 6 3 6 5 4 6 8 11 12 11 12 13 9 9 11 9 9 9 7 5 4 4 4 4 6 6 5 5 4 4 3 3 4 5 5 6 5 4 6 5
2 3 6 3 2 2 3 4 1 4 4 3 2 3 7 11 14 14 14 14 13 11 14 12 12 9 10 6 6 6 5 5 5 6 7 6 5 6 6 4 5 5 4 6 6 4 6 7 7
1 2 3 3 2 1 1 2 1 5 5 4 1 5 9 10 11 9 10 11 12 14 14 14 11 12 10 9 6 7 7 6 8 7 7 6 7 7 6 6 6 6 5 6 6 6 6 7 8
1 1 2 2 1 1 2 0 1 2 2 1 2 3 4 7 7 4 7 10 12 12 14 13 13 12 10 10 10 8 7 8 7 7 9 10 8 7 7 7 7 7 7 7 7 7 7 8 7
1 2 3 2 1 2 4 4 7 4 4 4 3 4 4 5 5 10 8 10 11 11 11 12 13 12 12 12 10 8 8 7 8 8 10 11 10 9 9 7 7 8 7 9 7 8 7 7 7
3 5 2 2 4 0 4 7 4 5 3 5 6 5 6 6 6 7 9 11 10 10 12 11 10 12 13 12 9 8 8 8 8 8 8 11 11 12 9 8 9 8 7 7 7 8 8 8 8
5 3 4 5 2 2 3 5 3 6 5 5 4 5 5 7 6 8 10 11 10 12 12 12 13 14 14 12 9 9 10 8 8 8 8 10 11 11 10 9 9 9 8 8 8 8 8 9 9
5 3 2 3 3 1 2 7 6 5 5 6 6 7 8 8 11 7 7 6 7 9 11 12 11 13 13 9 8 7 7 8 8 8 8 11 9 12 11 9 10 9 8 8 8 10 8 9 9
6 5 1 1 0 1 3 5 9 4 5 7 7 7 8 8 5 7 8 7 6 6 8 11 10 10 8 6 6 7 9 8 8 9 11 12 12 13 12 9 10 10 10 11 11 9 10 9 7
7 5 3 3 2 2 2 6 9 3 6 5 7 8 9 9 10 10 12 9 7 6 5 7 10 8 9 8 5 5 4 7 8 8 10 13 13 13 11 11 10 10 9 11 11 11 8 7 7
4 7 5 2 2 4 3 6 6 2 3 7 8 6 7 8 9 12 12 10 9 10 8 5 5 7 9 10 5 2 1 0 2 6 7 9 11 11 12 12 10 10 9 9 10 9 12 10 6
4 7 7 5 3 3 3 5 5 4 5 10 10 10 9 10 9 9 11 11 10 9 8 8 6 5 4 6 7 9 8 8 5 5 5 6 10 11 11 12 12 11 9 10 11 10 11 10 11
3 5 7 5 5 3 3 2 8 3 6 10 9 10 10 8 7 10 10 9 9 9 9 7 8 9 8 3 5 3 6 5 4 3 4 5 6 9 10 11 12 11 9 11 12 11 11 10 10
8 6 7 5 4 1 4 5 4 3 3 3 4 9 9 10 10 11 9 9 10 10 10 9 9 10 10 9 7 4 5 5 5 6 4 5 5 5 8 10 10 10 10 11 11 12 13 11 11
2 6 3 3 1 5 2 2 1 2 3 2 5 9 10 7 9 11 13 13 13 14 13 11 12 13 11 10 9 7 7 7 7 8 6 8 7 5 6 8 9 9 11 12 11 11 11 12 11
5 3 5 7 4 3 1 4 0 1 1 3 5 5 6 10 9 10 11 10 11 13 13 13 12 12 13 12 10 8 8 5 4 6 6 5 5 6 8 8 8 10 10 10 11 9 9 11 10
3 3 4 7 3 3 3 3 5 4 3 4 6 8 9 9 10 10 9 11 10 11 12 12 12 11 12 10 9 10 9 9 8 8 7 7 8 7 9 9 9 9 10 11 11 9 11 11 11
2 5 4 3 4 2 2 3 6 5 6 8 12 9 8 7 9 10 10 9 8 8 8 9 10 11 10 11 10 8 9 8 8 7 8 9 8 9 10 9 9 9 8 9 10 9 10 11 10
2 2 4 4 3 5 3 5 4 9 5 4 4 6 7 8 8 7 7 8 6 6 9 9 11 11 12 11 10 9 9 9 8 8 8 9 9 9 10 10 10 9 9 8 9 10 12 12 12
2 3 2 4 2 0 1 2 5 7 3 2 3 5 6 6 7 6 6 6 8 9 10 11 10 11 12 11 10 10 10 10 10 10 11 10 11 10 10 10 10 10 9 9 9 11 10 11 10
Wind_Direction
34 129 60 39 65 64 282 269 217 113 109 141 116 149 189 118 168 190 348 166 144 150 157 165 161 160 152 156 150 144 141 140 132 130 125 122 124 121 116 114 108 103 102 100 99 99 95 88 80
116 113 41 75 89 76 263 277 185 166 124 138 94 98 89 146 92 118 131 179 153 150 152 159 161 157 153 155 153 154 150 147 148 146 139 133 132 129 125 126 119 115 111 109 105 104 100 95 87
133 48 83 92 102 173 204 221 207 96 134 108 104 46 111 140 107 162 174 152 150 159 155 156 159 158 157 159 156 160 157 150 151 153 154 149 148 142 141 134 130 128 126 116 110 105 100 98 86
101 20 48 85 210 246 191 199 182 128 270 63 126 89 72 283 173 183 146 154 157 158 155 162 162 158 158 163 163 159 153 154 159 162 162 161 162 153 148 143 142 142 139 133 122 107 96 87 77
37 58 60 71 271 264 258 196 147 122 101 68 34 170 127 42 103 140 149 151 159 156 156 165 167 161 159 167 166 167 164 166 168 169 173 174 172 166 168 166 168 160 154 118 109 99 88 62 55
48 96 58 257 276 272 292 170 146 114 92 163 93 141 167 79 135 158 152 158 161 160 157 162 171 169 168 170 175 175 169 168 171 176 179 186 187 189 197 187 190 197 190 173 170 149 26 350 346
108 85 183 202 281 328 156 177 149 149 138 227 144 129 162 176 162 156 155 156 158 164 159 166 175 178 175 185 174 172 173 177 177 179 182 185 193 201 199 198 211 205 217 242 222 217 257 293 303
102 95 138 197 208 236 247 171 125 153 214 96 192 205 186 176 153 136 139 152 156 162 169 173 177 184 186 192 187 189 191 190 180 175 189 185 190 197 210 214 223 242 240 241 247 256 267 277 285
123 63 163 196 153 228 164 157 55 329 107 264 190 162 31 130 148 145 145 143 158 176 181 182 183 186 192 196 203 198 200 201 197 195 203 200 203 212 218 221 222 237 244 247 252 258 264 272 284
99 123 212 165 153 237 179 169 159 127 119 253 277 89 92 147 163 169 176 180 186 188 194 194 195 196 190 194 198 209 212 215 209 209 218 214 205 212 213 221 231 246 255 258 260 266 272 276 272
189 178 198 225 157 134 164 137 162 127 236 227 204 186 158 167 181 186 192 199 199 196 201 202 199 199 198 204 199 203 201 203 216 225 226 218 217 220 227 235 240 245 253 251 255 257 254 257 263
174 205 162 154 61 130 161 133 185 182 218 142 214 153 171 183 195 196 198 203 201 199 207 209 208 202 205 202 203 206 207 210 214 215 215 213 216 221 227 229 232 234 238 248 250 255 262 264 265
145 256 182 144 149 229 152 234 181 249 257 278 63 162 187 196 206 205 207 208 207 212 214 215 207 209 206 205 209 208 212 210 217 215 215 211 219 225 226 231 230 234 239 243 251 253 259 261 264
136 33 353 16 131 269 194 90 65 270 4 122 281 260 218 222 217 204 202 208 210 212 216 214 212 212 204 205 208 215 216 219 216 219 221 217 221 225 227 236 237 241 236 242 247 253 258 259 263
90 132 327 212 244 242 149 298 229 256 323 307 326 318 295 233 225 227 224 221 212 218 216 209 209 205 205 212 213 215 216 214 221 224 223 221 220 228 232 236 239 243 239 244 249 254 255 261 263
119 54 106 300 155 252 127 266 275 342 273 294 322 319 309 288 248 238 233 227 211 215 210 211 206 205 209 213 211 212 213 214 220 222 222 220 222 223 226 232 237 238 238 239 245 250 256 257 257
18 156 176 307 240 92 133 242 306 22 52 348 323 326 321 306 293 254 241 239 222 217 214 212 203 209 210 215 213 216 217 215 218 219 220 221 218 218 224 230 237 230 235 235 239 242 240 254 255
170 162 225 211 352 89 115 254 257 320 330 289 291 296 293 286 276 328 307 279 252 228 222 218 208 212 207 206 209 214 219 222 222 220 222 219 219 217 221 230 233 224 232 237 232 240 232 244 254
134 111 203 253 93 143 201 269 281 295 305 303 294 288 279 304 336 326 322 310 292 250 228 224 219 215 197 196 206 223 226 225 226 224 225 220 220 219 221 230 232 222 229 235 232 237 247 252 239
112 124 214 282 3 119 64 280 280 251 256 252 302 330 342 329 351 350 351 341 340 310 272 239 232 213 205 209 203 208 203 227 229 226 220 220 223 224 223 227 230 223 229 234 231 225 240 237 192
151 154 172 171 6 44 350 307 333 10 333 20 22 14 12 358 358 356 358 2 2 3 343 305 266 230 216 216 203 178 163 359 227 229 232 226 225 227 227 231 234 233 224 238 235 226 226 249 223
179 175 148 136 83 227 13 276 302 335 10 44 20 22 11 10 11 3 1 5 8 354 347 357 346 306 248 203 219 218 227 241 246 246 229 231 212 225 226 231 233 233 233 235 241 245 237 231 244
220 154 142 124 106 73 323 121 271 330 76 35 22 19 18 5 356 7 359 351 355 0 360 0 7 22 4 312 241 236 252 266 286 272 265 243 233 227 228 227 232 237 237 242 243 237 231 230 234
151 97 54 61 98 351 228 174 293 46 341 18 13 14 8 4 0 16 6 14 18 7 11 16 23 26 17 19 5 310 275 280 286 284 276 272 257 244 234 235 235 237 240 241 242 238 234 229 232
66 98 48 28 17 221 304 103 156 352 75 87 19 6 354 355 12 17 17 15 17 19 15 17 23 28 20 27 25 16 5 350 333 326 323 317 308 293 264 245 246 244 246 249 247 244 237 232 232
188 152 150 176 196 201 34 199 162 172 60 331 323 324 349 15 15 20 15 12 14 14 19 19 19 23 17 19 16 12 13 9 357 349 337 328 317 311 309 297 275 264 253 250 253 249 246 243 238
199 179 163 108 49 67 197 98 25 262 311 4 19 24 10 5 5 9 9 22 23 21 18 16 16 21 21 16 12 14 10 11 3 358 356 350 338 330 324 314 303 296 281 268 264 262 261 250 247
115 158 73 11 130 225 292 246 180 176 27 14 14 3 354 352 7 9 12 11 14 18 17 21 23 19 7 12 17 14 10 8 5 5 5 356 341 336 330 325 319 311 301 288 274 268 262 259 254
50 81 52 114 115 156 163 258 166 149 134 69 342 340 354 352 356 357 6 5 5 14 17 14 17 14 14 7 3 8 9 5 1 3 358 352 339 340 335 329 322 316 311 305 294 280 275 261 258
65 106 124 114 196 109 104 280 117 135 99 27 334 338 344 348 343 355 11 6 14 11 10 10 12 12 5 357 359 2 0 3 1 355 351 347 342 340 335 331 327 324 318 313 302 297 292 283 277